Charlevoix, MI

7:59 AM EDT on September 26, 2017 (GMT -0400)
Charlevoix Municipal

Weather History for KCVX - June, 2012

Change the Weather History Date:

Thursday, June 7, 2012

  Actual Average Record
Temperature  
Mean Temperature 60 °F -  
Max Temperature 73 °F 60 °F 93 °F (2011)
Min Temperature 48 °F 50 °F 46 °F (2001)
Degree Days  
Heating Degree Days 4    
Growing Degree Days 10 (Base 50)    
Moisture  
Dew Point 49 °F    
Average Humidity 62    
Maximum Humidity 95    
Minimum Humidity 37    
Precipitation  
Precipitation 0.00 in - - ()
Sea Level Pressure  
Sea Level Pressure 30.09 in    
Wind  
Wind Speed 5 mph (WSW)    
Max Wind Speed 12 mph    
Max Gust Speed -    
Visibility 10 miles    
Events      
Averages and records for this station are not official NWS values.
T = Trace of Precipitation, MM = Missing Value Source: NWS Daily Summary

Daily Weather History Graph

Daily Weather History Graph

Search for Another Location

Airport or City:

Trip Planner

Search our weather history database for the weather conditions in past years. The results will help you decide how hot, cold, wet, or windy it might be!

Date:

Astronomy

Jun. 07, 2012 Rise Set
Actual Time 5:53 AM EDT 9:26 PM EDT
Civil Twilight 5:16 AM EDT 10:04 PM EDT
Nautical Twilight 4:27 AM EDT 10:53 PM EDT
Astronomical Twilight 3:22 AM EDT 11:58 PM EDT
Moon No Moon Rise 9:30 AM EDT (6/7)
Length of Visible Light 16h 47m
Length of Day
15h 33m
Waning Gibbous, 86% of the Moon is Illuminated
Jun 7
Waning Gibbous
Jun 11
Last Quarter
Jun 19
New
Jun 26
First Quarter
Jul 3
Full

Hourly Weather History & Observations

Time (EDT) Temp. Dew Point Humidity Pressure Visibility Wind Dir Wind Speed Gust Speed Precip Events Conditions
12:54 AM 54.1 °F 49.5 °F 84% 30.09 in 10.0 mi Calm Calm - N/A   Clear
1:14 AM 52.2 °F 49.1 °F 89% 30.09 in 10.0 mi WSW 4.6 mph - N/A   Clear
1:34 AM 52.3 °F 49.6 °F 91% 30.09 in 10.0 mi WSW 5.8 mph - N/A   Clear
1:54 AM 52.7 °F 49.5 °F 89% 30.09 in 10.0 mi WSW 5.8 mph - N/A   Clear
2:15 AM 52.7 °F 49.5 °F 89% 30.09 in 10.0 mi WSW 5.8 mph - N/A   Clear
2:34 AM 52.9 °F 49.5 °F 88% 30.09 in 10.0 mi Calm Calm - N/A   Clear
3:15 AM 52.2 °F 49.3 °F 90% 30.09 in 10.0 mi Calm Calm - N/A   Clear
3:34 AM 50.0 °F 48.0 °F 93% 30.09 in 10.0 mi WSW 4.6 mph - N/A   Clear
3:55 AM 52.3 °F 49.1 °F 89% 30.09 in 10.0 mi WSW 4.6 mph - N/A   Clear
4:14 AM 51.3 °F 48.4 °F 90% 30.09 in 10.0 mi WSW 4.6 mph - N/A   Clear
4:35 AM 50.5 °F 48.2 °F 92% 30.09 in 10.0 mi West 3.5 mph - N/A   Clear
4:54 AM 51.4 °F 47.5 °F 86% 30.10 in 10.0 mi Calm Calm - N/A   Clear
5:14 AM 50.9 °F 48.0 °F 90% 30.10 in 10.0 mi Calm Calm - N/A   Clear
5:54 AM 48.9 °F 47.3 °F 94% 30.10 in 10.0 mi Calm Calm - N/A   Clear
6:15 AM 48.4 °F 46.8 °F 94% 30.10 in 10.0 mi Calm Calm - N/A   Clear
6:34 AM 48.7 °F 47.3 °F 95% 30.10 in 10.0 mi Calm Calm - N/A   Clear
6:54 AM 50.2 °F 48.2 °F 93% 30.10 in 10.0 mi Calm Calm - N/A   Clear
7:15 AM 53.1 °F 49.6 °F 88% 30.11 in 10.0 mi Calm Calm - N/A   Clear
7:34 AM 55.0 °F 51.1 °F 86% 30.12 in 10.0 mi Calm Calm - N/A   Clear
7:54 AM 57.6 °F 51.3 °F 79% 30.12 in 10.0 mi Calm Calm - N/A   Clear
8:15 AM 59.2 °F 51.3 °F 75% 30.12 in 10.0 mi WSW 4.6 mph - N/A   Clear
8:34 AM 61.2 °F 51.4 °F 70% 30.13 in 10.0 mi WSW 3.5 mph - N/A   Clear
8:54 AM 62.2 °F 52.3 °F 70% 30.13 in 10.0 mi West 4.6 mph - N/A   Clear
9:14 AM 64.2 °F 51.6 °F 64% 30.13 in 10.0 mi Calm Calm - N/A   Clear
9:34 AM 65.3 °F 50.2 °F 58% 30.13 in 10.0 mi WNW 3.5 mph - N/A   Clear
9:55 AM 66.2 °F 49.1 °F 54% 30.13 in 10.0 mi WNW 3.5 mph - N/A   Clear
10:14 AM 66.9 °F 48.0 °F 51% 30.12 in 10.0 mi WNW 3.5 mph - N/A   Clear
10:34 AM 67.5 °F 48.0 °F 50% 30.12 in 10.0 mi West 5.8 mph - N/A   Clear
10:55 AM 67.8 °F 49.1 °F 51% 30.12 in 10.0 mi West 6.9 mph - N/A   Clear
11:14 AM 68.0 °F 50.0 °F 52% 30.12 in 10.0 mi West 6.9 mph - N/A   Clear
11:34 AM 68.7 °F 47.7 °F 47% 30.12 in 10.0 mi West 5.8 mph - N/A   Clear
11:55 AM 69.8 °F 47.7 °F 45% 30.12 in 10.0 mi WSW 5.8 mph - N/A   Clear
12:14 PM 70.3 °F 50.0 °F 48% 30.12 in 10.0 mi West 6.9 mph - N/A   Clear
12:34 PM 70.2 °F 51.3 °F 51% 30.12 in 10.0 mi West 6.9 mph - N/A   Clear
12:54 PM 71.4 °F 47.5 °F 42% 30.12 in 10.0 mi West 3.5 mph - N/A   Clear
1:14 PM 71.6 °F 49.1 °F 45% 30.11 in 7.0 mi NNW 3.5 mph - N/A   Clear
1:35 PM 70.9 °F 51.4 °F 50% 30.10 in 10.0 mi West 9.2 mph - N/A   Clear
1:55 PM 70.7 °F 50.7 °F 49% 30.10 in 10.0 mi West 9.2 mph - N/A   Clear
2:14 PM 70.0 °F 51.6 °F 52% 30.10 in 10.0 mi West 8.1 mph - N/A   Clear
2:35 PM 71.6 °F 50.5 °F 47% 30.10 in 10.0 mi West 8.1 mph - N/A   Clear
2:54 PM 70.7 °F 49.1 °F 46% 30.10 in 10.0 mi West 9.2 mph - N/A   Clear
3:14 PM 70.7 °F 48.9 °F 46% 30.10 in 10.0 mi West 11.5 mph - N/A   Clear
3:34 PM 70.7 °F 47.8 °F 44% 30.09 in 10.0 mi WSW 11.5 mph - N/A   Clear
3:54 PM 72.5 °F 49.1 °F 44% 30.08 in 10.0 mi West 11.5 mph - N/A   Clear
4:15 PM 72.5 °F 46.9 °F 40% 30.08 in 10.0 mi WSW 9.2 mph - N/A   Clear
4:34 PM 73.6 °F 48.2 °F 41% 30.07 in 10.0 mi West 9.2 mph - N/A   Clear
4:54 PM 73.4 °F 45.9 °F 37% 30.07 in 10.0 mi WSW 11.5 mph - N/A   Clear
5:15 PM 72.7 °F 44.6 °F 37% 30.07 in 10.0 mi WSW 10.4 mph - N/A   Clear
5:34 PM 72.9 °F 48.2 °F 42% 30.07 in 10.0 mi West 11.5 mph - N/A   Clear
5:54 PM 71.8 °F 48.6 °F 44% 30.06 in 10.0 mi WSW 10.4 mph - N/A   Clear
6:14 PM 72.5 °F 46.6 °F 40% 30.05 in 10.0 mi West 10.4 mph - N/A   Clear
6:34 PM 72.0 °F 46.8 °F 41% 30.05 in 10.0 mi WSW 10.4 mph - N/A   Clear
6:54 PM 72.0 °F 48.2 °F 43% 30.04 in 10.0 mi WSW 8.1 mph - N/A   Clear
7:14 PM 71.8 °F 48.6 °F 44% 30.05 in 10.0 mi SW 9.2 mph - N/A   Clear
7:35 PM 71.2 °F 47.5 °F 43% 30.04 in 10.0 mi SW 6.9 mph - N/A   Clear
7:54 PM 71.2 °F 46.8 °F 42% 30.04 in 10.0 mi WSW 6.9 mph - N/A   Clear
8:14 PM 70.5 °F 45.3 °F 40% 30.04 in 10.0 mi SW 9.2 mph - N/A   Clear
8:35 PM 68.4 °F 46.8 °F 46% 30.04 in 10.0 mi WSW 8.1 mph - N/A   Clear
8:54 PM 67.1 °F 47.5 °F 49% 30.04 in 10.0 mi WSW 6.9 mph - N/A   Clear
9:14 PM 64.9 °F 48.6 °F 55% 30.03 in 10.0 mi SW 5.8 mph - N/A   Clear
9:35 PM 63.9 °F 50.2 °F 61% 30.04 in 10.0 mi WSW 10.4 mph - N/A   Clear
9:54 PM 63.1 °F 50.9 °F 64% 30.04 in 10.0 mi SW 8.1 mph - N/A   Clear
10:13 PM 62.8 °F 50.0 °F 63% 30.04 in 10.0 mi WSW 8.1 mph - N/A   Clear
10:34 PM 62.6 °F 48.2 °F 59% 30.04 in 10.0 mi WSW 6.9 mph - N/A   Clear
10:54 PM 61.9 °F 47.5 °F 59% 30.04 in 10.0 mi WSW 5.8 mph - N/A   Clear
11:14 PM 62.4 °F 47.3 °F 58% 30.04 in 10.0 mi WSW 5.8 mph - N/A   Clear
11:34 PM 62.6 °F 46.8 °F 56% 30.04 in 10.0 mi WSW 8.1 mph - N/A   Clear
11:54 PM 61.9 °F 46.4 °F 57% 30.03 in 10.0 mi SW 5.8 mph - N/A   Clear